F3825 Weather Reports


time (UTC)temp
C
wind
direction
speed
KPH
gust
KPH
rain 1hr
cm
rain 24hr
cm
rain mn
cm
humidity
%
barometer
mb
20260509032637 22 0 0.0 0.0 0.00 0.00 0.00 84 1006.6
20260509030512 22 344 0.0 0.0 0.00 0.00 0.00 82 1006.6
20260509025441 22 344 0.0 0.0 0.00 0.00 0.00 82 1006.7
20260509024459 23 344 0.0 0.0 0.00 0.00 0.00 81 1006.6
20260509023517 23 344 0.0 1.6 0.00 0.00 0.00 81 1006.4
20260509021351 23 338 0.0 0.0 0.00 0.00 0.00 80 1006.1
20260509020344 23 293 0.0 6.4 0.00 0.00 0.00 79 1006.1
20260509015337 23 300 0.0 6.4 0.00 0.00 0.00 79 1006.0
20260509014341 24 314 0.0 6.4 0.00 0.00 0.00 78 1005.9
20260509013346 24 346 0.0 6.4 0.00 0.00 0.00 78 1005.8
20260509012325 24 311 0.0 4.8 0.00 0.00 0.00 78 1005.8
20260509011254 24 346 0.0 6.4 0.00 0.00 0.00 77 1005.8
20260509010300 25 330 0.0 1.6 0.00 0.00 0.00 77 1005.8
20260509005244 25 294 0.0 6.4 0.00 0.00 0.00 77 1005.8
20260509002030 25 254 0.0 6.4 0.00 0.00 0.00 76 1005.8
20260509001055 25 286 0.0 0.0 0.00 0.00 0.00 75 1005.8
20260509000026 25 279 0.0 0.0 0.00 0.00 0.00 75 1005.8
20260508233942 25 321 0.0 8.0 0.00 0.00 0.00 74 1006.0
20260508232958 26 311 0.0 0.0 0.00 0.00 0.00 74 1005.8
20260508232011 25 282 0.0 12.9 0.00 0.00 0.00 73 1005.8
20260508230958 25 292 0.0 12.9 0.00 0.00 0.00 73 1005.7
20260508225924 25 296 0.0 3.2 0.00 0.00 0.00 73 1005.9
20260508224850 25 337 1.6 8.0 0.00 0.00 0.00 73 1005.9
20260508223909 26 264 1.6 9.7 0.00 0.00 0.00 73 1005.7
20260508222847 25 292 1.6 9.7 0.00 0.00 0.00 73 1005.7
20260508221851 25 261 0.0 12.9 0.00 0.00 0.00 73 1005.9
20260508220856 25 294 1.6 12.9 0.00 0.00 0.00 73 1005.9
20260508215832 25 254 1.6 8.0 0.00 0.00 0.00 73 1005.8
20260508214834 26 322 0.0 8.0 0.00 0.00 0.00 73 1006.2
20260508213859 26 289 0.0 12.9 0.00 0.00 0.00 73 1006.1
20260508212833 26 281 0.0 12.9 0.00 0.00 0.00 72 1006.2
20260508211839 26 211 0.0 9.7 0.00 0.00 0.00 72 1006.4
20260508210828 26 279 1.6 11.3 0.00 0.00 0.00 72 1006.7
20260508205853 26 235 1.6 11.3 0.00 0.00 0.00 72 1006.8
20260508204838 26 238 3.2 14.5 0.00 0.00 0.00 71 1007.0
20260508203813 26 297 3.2 14.5 0.00 0.00 0.00 71 1007.1
20260508202806 26 295 1.6 9.7 0.00 0.00 0.00 71 1007.1
20260508201739 26 288 0.0 9.7 0.00 0.00 0.00 71 1007.4
20260508200746 25 269 0.0 0.0 0.00 0.00 0.00 73 1007.6
20260508193449 25 292 1.6 8.0 0.00 0.00 0.00 71 1008.1
20260508192453 25 312 0.0 8.0 0.00 0.00 0.00 71 1008.1
20260508191456 25 303 1.6 6.4 0.00 0.00 0.00 71 1008.2
20260508190436 25 302 1.6 9.7 0.00 0.00 0.00 73 1008.1
20260508185420 24 248 1.6 9.7 0.00 0.00 0.00 72 1008.3
20260508183324 24 299 0.0 6.4 0.00 0.00 0.00 71 1008.6
20260508182257 24 260 0.0 6.4 0.00 0.00 0.00 71 1008.9
20260508181309 24 267 0.0 6.4 0.00 0.00 0.00 70 1009.0
20260508180305 24 136 0.0 6.4 0.00 0.00 0.00 70 1009.2
20260508175306 23 280 0.0 8.0 0.00 0.00 0.00 72 1009.3
20260508173136 23 285 1.6 9.7 0.00 0.00 0.00 72 1009.5
20260508172159 22 201 0.0 8.0 0.00 0.00 0.00 74 1009.4
20260508171157 22 157 0.0 6.4 0.00 0.00 0.00 73 1009.8
20260508170125 21 155 0.0 6.4 0.00 0.00 0.00 74 1009.8
20260508165131 21 256 0.0 3.2 0.00 0.00 0.00 73 1009.9
20260508162949 21 279 0.0 3.2 0.00 0.00 0.00 73 1010.3
20260508162014 21 279 0.0 3.2 0.00 0.00 0.00 73 1010.5
20260508161017 21 194 0.0 1.6 0.00 0.00 0.00 74 1010.4
20260508160009 21 342 0.0 1.6 0.00 0.00 0.00 74 1010.7
20260508154936 20 181 0.0 1.6 0.00 0.00 0.00 76 1010.5
20260508153948 20 180 0.0 0.0 0.00 0.00 0.00 75 1010.7
20260508152937 19 261 0.0 1.6 0.00 0.00 0.00 76 1010.7
20260508151918 19 254 0.0 4.8 0.00 0.00 0.00 77 1010.9
20260508150904 19 264 0.0 3.2 0.00 0.00 0.00 77 1011.0
20260508145856 18 269 0.0 0.0 0.00 0.00 0.00 77 1011.1
20260508143747 18 295 0.0 6.4 0.00 0.00 0.00 78 1010.7
20260508141633 18 294 0.0 4.8 0.00 0.00 0.00 78 1011.1
20260508140601 17 284 0.0 3.2 0.00 0.00 0.00 78 1011.0
20260508135616 17 304 0.0 4.8 0.00 0.00 0.00 78 1011.1
20260508134628 17 257 0.0 3.2 0.00 0.00 0.00 78 1011.3
20260508133627 17 146 0.0 1.6 0.00 0.00 0.00 78 1011.3
20260508132610 17 146 0.0 3.2 0.00 0.00 0.00 78 1011.2
20260508131626 17 265 0.0 0.0 0.00 0.00 0.00 78 1011.2
20260508125519 16 265 0.0 1.6 0.00 0.00 0.00 79 1011.2
20260508124511 16 156 0.0 0.0 0.00 0.00 0.00 79 1011.1
20260508123500 16 142 0.0 1.6 0.00 0.00 0.00 79 1011.6
20260508122455 16 141 0.0 0.0 0.00 0.00 0.00 79 1011.6
20260508121448 16 142 0.0 0.0 0.00 0.00 0.00 79 1011.4
20260508120435 16 144 0.0 1.6 0.00 0.00 0.00 79 1011.6
20260508115434 16 144 0.0 3.2 0.00 0.00 0.00 79 1012.0
20260508114404 16 143 0.0 6.4 0.00 0.00 0.00 79 1012.0
20260508112200 16 158 0.0 3.2 0.00 0.00 0.00 79 1012.0
20260508111134 16 242 0.0 6.4 0.00 0.00 0.00 79 1011.7
20260508110139 16 187 0.0 6.4 0.00 0.00 0.00 78 1011.8
20260508105123 16 209 0.0 6.4 0.00 0.00 0.00 78 1011.6
20260508104120 16 203 0.0 6.4 0.00 0.00 0.00 78 1011.5
20260508103134 16 177 0.0 6.4 0.00 0.00 0.00 78 1011.5
20260508102117 16 207 0.0 6.4 0.00 0.00 0.00 78 1011.8
20260508101107 16 159 0.0 6.4 0.00 0.00 0.00 78 1012.1
20260508100108 16 190 0.0 4.8 0.00 0.00 0.00 78 1012.0
20260508095050 16 204 0.0 4.8 0.00 0.00 0.00 78 1012.2
20260508093019 16 201 0.0 1.6 0.00 0.00 0.00 78 1011.9
20260508092007 16 204 0.0 1.6 0.00 0.00 0.00 78 1011.8
20260508083512 16 259 0.0 0.0 0.00 0.00 0.00 77 1011.7
20260508082458 16 259 0.0 0.0 0.00 0.00 0.00 77 1011.8
20260508081427 16 259 0.0 0.0 0.00 0.00 0.00 77 1011.7
20260508080424 16 257 0.0 0.0 0.00 0.00 0.00 77 1011.6
20260508075448 16 257 0.0 0.0 0.00 0.00 0.00 77 1011.7
20260508074447 16 258 0.0 0.0 0.00 0.00 0.00 78 1011.5
20260508073450 16 258 0.0 0.0 0.00 0.00 0.00 78 1011.4
20260508072450 16 250 0.0 0.0 0.00 0.00 0.00 79 1011.6
20260508071451 16 260 0.0 3.2 0.00 0.00 0.00 79 1011.5
20260508070418 16 180 0.0 1.6 0.00 0.00 0.00 79 1012.1
20260508064323 15 177 0.0 0.0 0.00 0.00 0.00 80 1012.2
20260508063332 15 177 0.0 0.0 0.00 0.00 0.00 81 1012.7
20260508062335 15 178 0.0 0.0 0.00 0.00 0.00 81 1013.1
20260508061307 15 178 0.0 0.0 0.00 0.00 0.00 80 1012.5
20260508055153 15 178 0.0 0.0 0.00 0.00 0.00 80 1012.5
20260508054131 15 178 0.0 0.0 0.00 0.00 0.00 80 1012.7
20260508053112 15 174 0.0 3.2 0.00 0.00 0.00 80 1012.4
20260508052129 15 244 0.0 1.6 0.00 0.00 0.00 79 1012.1
20260508051111 16 149 0.0 0.0 0.00 0.00 0.00 79 1012.3
20260508050111 16 149 0.0 1.6 0.00 0.00 0.00 79 1013.0
20260508045118 16 146 0.0 0.0 0.00 0.00 0.00 79 1013.1
20260508044126 16 263 0.0 0.0 0.00 0.00 0.00 79 1012.3
20260508043114 15 263 0.0 0.0 0.00 0.00 0.00 79 1012.0
20260508042108 15 263 0.0 0.0 0.00 0.00 0.00 79 1012.8
20260508041054 15 263 0.0 0.0 0.00 0.00 0.00 79 1012.8
20260508040036 16 263 0.0 0.0 0.00 0.00 0.00 78 1013.0
20260508032803 16 264 0.0 0.0 0.00 0.00 0.00 76 1013.8